Wetterdaten: Dienstag, 10.11.2015
Datum Zeit Auen-Temp. Temp gefhlt Luftfeuchte Luftdruck Regen Wind Richtung Richtung Taupunkt Windben
10.11.2015 00:00 11,3 C 11,1 C 83 % 1027,4 hPa 0,0 mm 8,0 km/h (2 Bft) NW 315 8,5 C 10,1 km/h (2 Bft)
10.11.2015 00:05 11,2 C 10,9 C 83 % 1027,4 hPa 0,0 mm 8,8 km/h (2 Bft) W-SW 247 8,4 C 13,7 km/h (3 Bft)
10.11.2015 00:10 11,2 C 11,0 C 83 % 1027,6 hPa 0,0 mm 8,5 km/h (2 Bft) W-SW 247 8,4 C 8,5 km/h (2 Bft)
10.11.2015 00:15 11,1 C 10,9 C 83 % 1027,6 hPa 0,0 mm 7,8 km/h (2 Bft) W-SW 247 8,3 C 6,5 km/h (2 Bft)
10.11.2015 00:20 11,2 C 11,0 C 83 % 1027,6 hPa 0,0 mm 7,8 km/h (2 Bft) W-SW 247 8,4 C 14,2 km/h (3 Bft)
10.11.2015 00:25 11,2 C 10,9 C 83 % 1027,6 hPa 0,0 mm 8,3 km/h (2 Bft) W-SW 247 8,4 C 11,1 km/h (2 Bft)
10.11.2015 00:30 11,2 C 10,9 C 83 % 1027,4 hPa 0,0 mm 8,5 km/h (2 Bft) W 270 8,4 C 17,6 km/h (3 Bft)
10.11.2015 00:35 11,2 C 10,9 C 83 % 1027,4 hPa 0,0 mm 8,0 km/h (2 Bft) W-SW 247 8,4 C 8,8 km/h (2 Bft)
10.11.2015 00:40 11,2 C 11,0 C 83 % 1027,4 hPa 0,0 mm 7,5 km/h (2 Bft) O-NO 67 8,4 C 9,3 km/h (2 Bft)
10.11.2015 00:45 11,3 C 11,0 C 83 % 1027,4 hPa 0,0 mm 9,6 km/h (2 Bft) NW 315 8,5 C 10,4 km/h (2 Bft)
10.11.2015 00:50 11,3 C 11,0 C 83 % 1027,0 hPa 0,0 mm 9,6 km/h (2 Bft) W 270 8,5 C 22,3 km/h (4 Bft)
10.11.2015 00:55 11,1 C 11,0 C 83 % 1027,0 hPa 0,0 mm 7,5 km/h (2 Bft) W-NW 292 8,3 C 6,2 km/h (2 Bft)
10.11.2015 01:00 11,1 C 10,9 C 83 % 1027,0 hPa 0,0 mm 7,0 km/h (2 Bft) W-SW 247 8,3 C 5,2 km/h (1 Bft)
10.11.2015 01:05 11,0 C 10,8 C 83 % 1027,0 hPa 0,0 mm 6,7 km/h (2 Bft) W-SW 247 8,2 C 9,3 km/h (2 Bft)
10.11.2015 01:10 11,0 C 10,8 C 83 % 1027,1 hPa 0,0 mm 6,7 km/h (2 Bft) W 270 8,2 C 7,8 km/h (2 Bft)
10.11.2015 01:15 11,0 C 10,8 C 83 % 1027,1 hPa 0,0 mm 7,0 km/h (2 Bft) W-SW 247 8,2 C 8,0 km/h (2 Bft)
10.11.2015 01:20 11,1 C 10,8 C 83 % 1027,1 hPa 0,0 mm 8,0 km/h (2 Bft) W-SW 247 8,3 C 8,8 km/h (2 Bft)
10.11.2015 01:25 11,1 C 10,8 C 83 % 1027,1 hPa 0,0 mm 9,3 km/h (2 Bft) S-SW 202 8,3 C 18,1 km/h (3 Bft)
10.11.2015 01:30 11,0 C 10,8 C 82 % 1026,9 hPa 0,0 mm 8,0 km/h (2 Bft) SW 225 8,0 C 9,3 km/h (2 Bft)
10.11.2015 01:35 10,9 C 10,8 C 82 % 1026,9 hPa 0,0 mm 7,0 km/h (2 Bft) SW 225 7,9 C 13,5 km/h (3 Bft)
10.11.2015 01:40 10,9 C 10,7 C 82 % 1026,9 hPa 0,0 mm 6,7 km/h (2 Bft) W-NW 292 7,9 C 5,4 km/h (1 Bft)
10.11.2015 01:45 10,8 C 10,7 C 82 % 1026,9 hPa 0,0 mm 6,5 km/h (2 Bft) W 270 7,9 C 6,5 km/h (2 Bft)
10.11.2015 01:50 10,8 C 10,7 C 82 % 1026,8 hPa 0,0 mm 5,7 km/h (1 Bft) W 270 7,9 C 4,9 km/h (1 Bft)
10.11.2015 01:55 10,6 C 10,5 C 82 % 1026,8 hPa 0,0 mm 5,7 km/h (1 Bft) W 270 7,7 C 3,1 km/h (1 Bft)
10.11.2015 02:00 10,4 C 10,3 C 82 % 1026,8 hPa 0,0 mm 4,9 km/h (1 Bft) W-SW 247 7,5 C 6,2 km/h (2 Bft)
10.11.2015 02:05 10,3 C 10,2 C 82 % 1026,8 hPa 0,0 mm 3,4 km/h (1 Bft) W 270 7,4 C 6,0 km/h (2 Bft)
10.11.2015 02:10 10,1 C 10,0 C 82 % 1026,8 hPa 0,0 mm 2,6 km/h (1 Bft) W-NW 292 7,2 C 4,1 km/h (1 Bft)
10.11.2015 02:15 10,1 C 9,9 C 82 % 1026,8 hPa 0,0 mm 1,8 km/h (1 Bft) W-SW 247 7,2 C 6,0 km/h (2 Bft)
10.11.2015 02:20 10,1 C 9,9 C 82 % 1026,8 hPa 0,0 mm 1,8 km/h (1 Bft) W-SW 247 7,2 C 0,0 km/h (0 Bft)
10.11.2015 02:25 10,2 C 10,0 C 82 % 1026,8 hPa 0,0 mm 2,6 km/h (1 Bft) W-SW 247 7,3 C 6,0 km/h (2 Bft)
10.11.2015 02:30 10,5 C 10,3 C 82 % 1026,7 hPa 0,0 mm 4,7 km/h (1 Bft) W-SW 247 7,6 C 9,8 km/h (2 Bft)
10.11.2015 02:33 10,5 C 10,3 C 82 % 1026,7 hPa 0,0 mm 4,7 km/h (1 Bft) W-SW 247 7,6 C 9,8 km/h (2 Bft)
10.11.2015 02:35 10,6 C 10,4 C 82 % 1026,7 hPa 0,0 mm 6,0 km/h (2 Bft) W-SW 247 7,7 C 13,7 km/h (3 Bft)
10.11.2015 02:40 10,8 C 10,6 C 81 % 1026,7 hPa 0,0 mm 5,2 km/h (1 Bft) W 270 7,7 C 3,4 km/h (1 Bft)
10.11.2015 02:45 10,6 C 10,5 C 81 % 1026,7 hPa 0,0 mm 4,1 km/h (1 Bft) W-SW 247 7,5 C 5,2 km/h (1 Bft)
10.11.2015 02:50 10,9 C 10,7 C 81 % 1026,8 hPa 0,0 mm 3,6 km/h (1 Bft) W 270 7,8 C 3,1 km/h (1 Bft)
10.11.2015 02:55 10,9 C 10,8 C 80 % 1026,8 hPa 0,0 mm 4,7 km/h (1 Bft) W-SW 247 7,6 C 3,6 km/h (1 Bft)
10.11.2015 03:00 11,0 C 10,9 C 79 % 1026,8 hPa 0,0 mm 3,6 km/h (1 Bft) W 270 7,5 C 3,9 km/h (1 Bft)
10.11.2015 03:05 11,3 C 11,2 C 79 % 1026,8 hPa 0,0 mm 4,9 km/h (1 Bft) W-SW 247 7,8 C 14,2 km/h (3 Bft)
10.11.2015 03:10 11,4 C 11,3 C 78 % 1026,9 hPa 0,0 mm 6,2 km/h (2 Bft) W 270 7,7 C 6,5 km/h (2 Bft)
10.11.2015 03:15 11,7 C 11,7 C 78 % 1026,9 hPa 0,0 mm 5,7 km/h (1 Bft) W-NW 292 8,0 C 8,0 km/h (2 Bft)
10.11.2015 03:20 11,9 C 11,9 C 77 % 1026,9 hPa 0,0 mm 5,2 km/h (1 Bft) W 270 8,0 C 4,4 km/h (1 Bft)
10.11.2015 03:25 12,1 C 12,1 C 76 % 1026,9 hPa 0,0 mm 6,2 km/h (2 Bft) W 270 8,0 C 9,8 km/h (2 Bft)
10.11.2015 03:30 12,0 C 12,1 C 75 % 1026,4 hPa 0,0 mm 6,2 km/h (2 Bft) W-SW 247 7,7 C 8,3 km/h (2 Bft)
10.11.2015 03:35 11,9 C 11,9 C 75 % 1026,4 hPa 0,0 mm 5,2 km/h (1 Bft) W-NW 292 7,6 C 0,0 km/h (0 Bft)
10.11.2015 03:40 11,9 C 11,9 C 75 % 1026,4 hPa 0,0 mm 4,9 km/h (1 Bft) W-SW 247 7,6 C 6,2 km/h (2 Bft)
10.11.2015 03:45 12,0 C 11,9 C 74 % 1026,4 hPa 0,0 mm 6,2 km/h (2 Bft) W-SW 247 7,5 C 17,6 km/h (3 Bft)
10.11.2015 03:50 12,0 C 11,9 C 74 % 1026,4 hPa 0,0 mm 6,2 km/h (2 Bft) W-SW 247 7,5 C 6,5 km/h (2 Bft)
10.11.2015 03:55 11,9 C 11,9 C 74 % 1026,4 hPa 0,0 mm 6,2 km/h (2 Bft) NW 315 7,4 C 6,2 km/h (2 Bft)
10.11.2015 04:00 11,8 C 11,8 C 74 % 1026,4 hPa 0,0 mm 5,7 km/h (1 Bft) W-SW 247 7,3 C 3,9 km/h (1 Bft)
10.11.2015 04:05 11,8 C 11,8 C 74 % 1026,4 hPa 0,0 mm 4,4 km/h (1 Bft) NW 315 7,3 C 5,4 km/h (1 Bft)
10.11.2015 04:10 11,9 C 11,8 C 74 % 1026,6 hPa 0,0 mm 4,4 km/h (1 Bft) SW 225 7,4 C 9,3 km/h (2 Bft)
10.11.2015 04:15 12,1 C 12,0 C 73 % 1026,6 hPa 0,0 mm 5,7 km/h (1 Bft) S-SW 202 7,4 C 7,8 km/h (2 Bft)
10.11.2015 04:20 12,2 C 12,1 C 73 % 1026,6 hPa 0,0 mm 7,0 km/h (2 Bft) SW 225 7,5 C 6,2 km/h (2 Bft)
10.11.2015 04:25 11,9 C 11,9 C 73 % 1026,6 hPa 0,0 mm 5,7 km/h (1 Bft) W 270 7,2 C 8,0 km/h (2 Bft)
10.11.2015 04:30 11,9 C 11,8 C 73 % 1026,6 hPa 0,0 mm 4,9 km/h (1 Bft) W 270 7,2 C 6,0 km/h (2 Bft)
10.11.2015 04:35 11,9 C 11,8 C 73 % 1026,6 hPa 0,0 mm 6,0 km/h (2 Bft) W-SW 247 7,2 C 8,8 km/h (2 Bft)
10.11.2015 04:40 12,0 C 11,9 C 72 % 1026,6 hPa 0,0 mm 7,0 km/h (2 Bft) SW 225 7,1 C 8,5 km/h (2 Bft)
10.11.2015 04:45 12,0 C 11,9 C 72 % 1026,6 hPa 0,0 mm 6,7 km/h (2 Bft) SW 225 7,1 C 7,8 km/h (2 Bft)
10.11.2015 04:50 12,1 C 12,0 C 72 % 1026,6 hPa 0,0 mm 7,5 km/h (2 Bft) W-SW 247 7,2 C 8,3 km/h (2 Bft)
10.11.2015 04:55 12,2 C 12,1 C 71 % 1026,6 hPa 0,0 mm 8,3 km/h (2 Bft) W-SW 247 7,1 C 9,3 km/h (2 Bft)
10.11.2015 05:00 12,2 C 12,1 C 70 % 1026,6 hPa 0,0 mm 8,5 km/h (2 Bft) W-SW 247 6,9 C 9,3 km/h (2 Bft)
10.11.2015 05:05 12,2 C 12,1 C 69 % 1026,6 hPa 0,0 mm 8,8 km/h (2 Bft) SW 225 6,7 C 10,1 km/h (2 Bft)
10.11.2015 05:10 12,1 C 12,0 C 69 % 1026,7 hPa 0,0 mm 8,8 km/h (2 Bft) S-SW 202 6,6 C 9,1 km/h (2 Bft)
10.11.2015 05:15 11,9 C 11,9 C 70 % 1026,7 hPa 0,0 mm 6,5 km/h (2 Bft) S 180 6,6 C 8,8 km/h (2 Bft)
10.11.2015 05:20 12,0 C 11,9 C 69 % 1026,7 hPa 0,0 mm 5,7 km/h (1 Bft) S-SW 202 6,5 C 11,9 km/h (2 Bft)
10.11.2015 05:25 12,2 C 12,1 C 69 % 1026,7 hPa 0,0 mm 7,8 km/h (2 Bft) W-SW 247 6,7 C 9,8 km/h (2 Bft)
10.11.2015 05:30 12,2 C 12,1 C 69 % 1026,8 hPa 0,0 mm 8,3 km/h (2 Bft) S 180 6,7 C 6,5 km/h (2 Bft)
10.11.2015 05:35 11,9 C 11,9 C 69 % 1026,8 hPa 0,0 mm 6,7 km/h (2 Bft) W-SW 247 6,4 C 7,8 km/h (2 Bft)
10.11.2015 05:40 11,9 C 11,8 C 69 % 1026,8 hPa 0,0 mm 6,7 km/h (2 Bft) W-SW 247 6,4 C 7,8 km/h (2 Bft)
10.11.2015 05:45 12,0 C 11,9 C 69 % 1026,8 hPa 0,0 mm 8,3 km/h (2 Bft) W-NW 292 6,5 C 7,5 km/h (2 Bft)
10.11.2015 05:50 12,1 C 12,0 C 69 % 1026,6 hPa 0,0 mm 8,0 km/h (2 Bft) SW 225 6,6 C 8,8 km/h (2 Bft)
10.11.2015 05:55 11,9 C 11,8 C 69 % 1026,6 hPa 0,0 mm 7,0 km/h (2 Bft) S-SW 202 6,4 C 10,4 km/h (2 Bft)
10.11.2015 06:00 11,8 C 11,7 C 69 % 1026,6 hPa 0,0 mm 6,7 km/h (2 Bft) S-SW 202 6,3 C 9,3 km/h (2 Bft)
10.11.2015 06:05 11,8 C 11,7 C 69 % 1026,6 hPa 0,0 mm 7,3 km/h (2 Bft) S 180 6,3 C 8,5 km/h (2 Bft)
10.11.2015 06:10 11,8 C 11,7 C 68 % 1026,7 hPa 0,0 mm 7,0 km/h (2 Bft) W-SW 247 6,1 C 6,2 km/h (2 Bft)
10.11.2015 06:15 11,5 C 11,5 C 68 % 1026,7 hPa 0,0 mm 6,2 km/h (2 Bft) S 180 5,8 C 9,3 km/h (2 Bft)
10.11.2015 06:20 11,2 C 11,3 C 69 % 1026,7 hPa 0,0 mm 5,7 km/h (1 Bft) SW 225 5,7 C 8,3 km/h (2 Bft)
10.11.2015 06:25 11,2 C 11,2 C 68 % 1026,7 hPa 0,0 mm 7,0 km/h (2 Bft) S 180 5,5 C 9,3 km/h (2 Bft)
10.11.2015 06:30 11,1 C 11,1 C 68 % 1026,5 hPa 0,0 mm 8,0 km/h (2 Bft) SW 225 5,4 C 8,3 km/h (2 Bft)
10.11.2015 06:35 10,7 C 10,9 C 69 % 1026,5 hPa 0,0 mm 5,4 km/h (1 Bft) S-SW 202 5,2 C 9,6 km/h (2 Bft)
10.11.2015 06:40 10,9 C 10,9 C 69 % 1026,5 hPa 0,0 mm 5,7 km/h (1 Bft) SW 225 5,4 C 14,5 km/h (3 Bft)
10.11.2015 06:45 11,0 C 11,1 C 68 % 1026,5 hPa 0,0 mm 7,8 km/h (2 Bft) W-SW 247 5,3 C 11,1 km/h (2 Bft)
10.11.2015 06:50 10,7 C 10,9 C 68 % 1026,5 hPa 0,0 mm 5,7 km/h (1 Bft) W-SW 247 5,0 C 0,0 km/h (0 Bft)
10.11.2015 06:55 10,5 C 10,6 C 69 % 1026,5 hPa 0,0 mm 1,0 km/h (0 Bft) SO 135 5,1 C 3,1 km/h (1 Bft)
10.11.2015 07:00 10,5 C 10,5 C 69 % 1026,5 hPa 0,0 mm 0,0 km/h (0 Bft) SO 135 5,1 C 0,0 km/h (0 Bft)
10.11.2015 07:05 10,4 C 10,4 C 69 % 1026,5 hPa 0,0 mm 0,0 km/h (0 Bft) N-NO 22 5,0 C 2,8 km/h (1 Bft)
10.11.2015 07:10 9,6 C 9,8 C 69 % 1026,8 hPa 0,0 mm 0,5 km/h (0 Bft) N 360 4,2 C 0,0 km/h (0 Bft)
10.11.2015 07:15 9,3 C 9,2 C 71 % 1026,8 hPa 0,0 mm 0,5 km/h (0 Bft) W-SW 247 4,3 C 0,0 km/h (0 Bft)
10.11.2015 07:20 9,3 C 9,1 C 71 % 1026,8 hPa 0,0 mm 0,8 km/h (0 Bft) S-SW 202 4,3 C 2,8 km/h (1 Bft)
10.11.2015 07:25 9,1 C 9,2 C 72 % 1026,8 hPa 0,0 mm 3,1 km/h (1 Bft) S 180 4,3 C 8,8 km/h (2 Bft)
10.11.2015 07:30 9,2 C 9,4 C 72 % 1026,8 hPa 0,0 mm 4,4 km/h (1 Bft) SW 225 4,4 C 7,5 km/h (2 Bft)
10.11.2015 07:35 8,7 C 9,5 C 72 % 1026,8 hPa 0,0 mm 4,9 km/h (1 Bft) S 180 3,9 C 9,1 km/h (2 Bft)
10.11.2015 07:40 8,8 C 9,5 C 73 % 1026,8 hPa 0,0 mm 4,4 km/h (1 Bft) SW 225 4,2 C 5,4 km/h (1 Bft)
10.11.2015 07:45 8,9 C 9,5 C 73 % 1026,8 hPa 0,0 mm 4,4 km/h (1 Bft) SW 225 4,3 C 7,5 km/h (2 Bft)
10.11.2015 07:50 8,9 C 9,5 C 74 % 1027,0 hPa 0,0 mm 4,1 km/h (1 Bft) SW 225 4,5 C 3,1 km/h (1 Bft)
10.11.2015 07:55 8,9 C 9,7 C 73 % 1027,0 hPa 0,0 mm 4,1 km/h (1 Bft) S-SW 202 4,3 C 8,3 km/h (2 Bft)
10.11.2015 08:00 9,3 C 9,9 C 73 % 1027,0 hPa 0,0 mm 5,2 km/h (1 Bft) N-NO 22 4,7 C 9,1 km/h (2 Bft)
10.11.2015 08:05 9,9 C 9,9 C 74 % 1027,0 hPa 0,0 mm 9,3 km/h (2 Bft) SW 225 5,5 C 17,9 km/h (3 Bft)
10.11.2015 08:10 10,2 C 10,1 C 73 % 1026,9 hPa 0,0 mm 11,1 km/h (2 Bft) S-SW 202 5,6 C 15,8 km/h (3 Bft)
10.11.2015 08:15 10,6 C 10,5 C 70 % 1026,9 hPa 0,0 mm 11,1 km/h (2 Bft) S 180 5,4 C 11,7 km/h (2 Bft)
10.11.2015 08:20 10,5 C 10,5 C 69 % 1026,9 hPa 0,0 mm 9,8 km/h (2 Bft) SW 225 5,1 C 8,5 km/h (2 Bft)
10.11.2015 08:25 10,3 C 10,9 C 69 % 1026,9 hPa 0,0 mm 6,5 km/h (2 Bft) S 180 4,9 C 14,5 km/h (3 Bft)
10.11.2015 08:30 10,5 C 10,9 C 69 % 1027,1 hPa 0,0 mm 7,0 km/h (2 Bft) S 180 5,1 C 10,4 km/h (2 Bft)
10.11.2015 08:34 10,8 C 10,8 C 68 % 1027,1 hPa 0,0 mm 9,3 km/h (2 Bft) S-SW 202 5,1 C 13,7 km/h (3 Bft)
10.11.2015 08:35 10,8 C 10,8 C 68 % 1027,1 hPa 0,0 mm 9,3 km/h (2 Bft) S-SW 202 5,1 C 13,7 km/h (3 Bft)
10.11.2015 08:40 11,0 C 11,2 C 67 % 1027,1 hPa 0,0 mm 8,5 km/h (2 Bft) S 180 5,1 C 7,0 km/h (2 Bft)
10.11.2015 08:45 11,4 C 11,7 C 66 % 1027,1 hPa 0,0 mm 8,0 km/h (2 Bft) S-SW 202 5,3 C 10,9 km/h (2 Bft)
10.11.2015 08:50 11,5 C 11,9 C 65 % 1027,1 hPa 0,0 mm 6,7 km/h (2 Bft) S-SW 202 5,2 C 0,0 km/h (0 Bft)
10.11.2015 08:55 11,4 C 12,1 C 65 % 1027,1 hPa 0,0 mm 5,2 km/h (1 Bft) S-SW 202 5,1 C 5,7 km/h (1 Bft)
10.11.2015 09:00 11,4 C 12,1 C 65 % 1027,1 hPa 0,0 mm 3,6 km/h (1 Bft) W-SW 247 5,1 C 5,2 km/h (1 Bft)
10.11.2015 09:05 10,7 C 12,0 C 66 % 1027,1 hPa 0,0 mm 2,1 km/h (1 Bft) SW 225 4,6 C 4,1 km/h (1 Bft)
10.11.2015 09:10 10,9 C 12,0 C 66 % 1027,1 hPa 0,0 mm 2,1 km/h (1 Bft) W 270 4,8 C 3,1 km/h (1 Bft)
10.11.2015 09:15 11,5 C 12,3 C 66 % 1027,1 hPa 0,0 mm 3,1 km/h (1 Bft) SW 225 5,4 C 8,0 km/h (2 Bft)
10.11.2015 09:20 12,0 C 12,6 C 66 % 1027,1 hPa 0,0 mm 2,8 km/h (1 Bft) W-SW 247 5,8 C 6,5 km/h (2 Bft)
10.11.2015 09:25 12,5 C 13,4 C 65 % 1027,1 hPa 0,0 mm 2,1 km/h (1 Bft) NO 45 6,1 C 0,0 km/h (0 Bft)
10.11.2015 09:30 12,5 C 13,9 C 66 % 1027,3 hPa 0,0 mm 1,3 km/h (1 Bft) NO 45 6,3 C 4,4 km/h (1 Bft)
10.11.2015 09:35 12,5 C 14,1 C 66 % 1027,3 hPa 0,0 mm 0,5 km/h (0 Bft) O-NO 67 6,3 C 0,0 km/h (0 Bft)
10.11.2015 09:40 12,6 C 14,2 C 66 % 1027,3 hPa 0,0 mm 0,5 km/h (0 Bft) O-SO 112 6,4 C 0,0 km/h (0 Bft)
10.11.2015 09:45 12,9 C 14,6 C 66 % 1027,3 hPa 0,0 mm 0,0 km/h (0 Bft) NO 45 6,7 C 0,0 km/h (0 Bft)
10.11.2015 09:50 13,0 C 14,8 C 65 % 1027,3 hPa 0,0 mm 0,8 km/h (0 Bft) O-NO 67 6,6 C 3,6 km/h (1 Bft)
10.11.2015 09:55 13,1 C 15,0 C 66 % 1027,3 hPa 0,0 mm 1,0 km/h (0 Bft) O-NO 67 6,9 C 0,0 km/h (0 Bft)
10.11.2015 10:00 13,3 C 15,2 C 66 % 1027,3 hPa 0,0 mm 0,5 km/h (0 Bft) N-NO 22 7,1 C 0,0 km/h (0 Bft)
10.11.2015 10:05 13,5 C 15,7 C 65 % 1027,3 hPa 0,0 mm 0,0 km/h (0 Bft) N-NW 337 7,1 C 0,0 km/h (0 Bft)
10.11.2015 10:10 13,7 C 15,9 C 65 % 1027,5 hPa 0,0 mm 0,3 km/h (0 Bft) W-SW 247 7,2 C 0,0 km/h (0 Bft)
10.11.2015 10:15 14,0 C 16,3 C 64 % 1027,5 hPa 0,0 mm 0,8 km/h (0 Bft) N 360 7,3 C 2,8 km/h (1 Bft)
10.11.2015 10:20 14,1 C 16,4 C 63 % 1027,5 hPa 0,0 mm 0,8 km/h (0 Bft) N-NO 22 7,2 C 0,0 km/h (0 Bft)
10.11.2015 10:25 14,2 C 16,5 C 63 % 1027,5 hPa 0,0 mm 0,8 km/h (0 Bft) NO 45 7,3 C 2,8 km/h (1 Bft)
10.11.2015 10:30 14,2 C 16,5 C 62 % 1027,5 hPa 0,0 mm 1,3 km/h (1 Bft) N-NW 337 7,0 C 2,6 km/h (1 Bft)
10.11.2015 10:35 14,1 C 16,4 C 61 % 1027,5 hPa 0,0 mm 1,6 km/h (1 Bft) NO 45 6,7 C 0,0 km/h (0 Bft)
10.11.2015 10:40 13,9 C 16,3 C 61 % 1027,5 hPa 0,0 mm 0,8 km/h (0 Bft) O 90 6,5 C 0,0 km/h (0 Bft)
10.11.2015 10:45 13,7 C 16,2 C 60 % 1027,5 hPa 0,0 mm 0,0 km/h (0 Bft) O-NO 67 6,1 C 0,0 km/h (0 Bft)
10.11.2015 10:50 13,5 C 15,8 C 60 % 1027,4 hPa 0,0 mm 0,0 km/h (0 Bft) O-NO 67 5,9 C 0,0 km/h (0 Bft)
10.11.2015 10:55 13,4 C 15,1 C 59 % 1027,4 hPa 0,0 mm 0,0 km/h (0 Bft) NO 45 5,6 C 0,0 km/h (0 Bft)
10.11.2015 11:00 13,4 C 14,9 C 59 % 1027,4 hPa 0,0 mm 0,0 km/h (0 Bft) W-NW 292 5,6 C 0,0 km/h (0 Bft)
10.11.2015 11:05 13,4 C 14,6 C 60 % 1027,4 hPa 0,0 mm 0,8 km/h (0 Bft) W 270 5,8 C 0,0 km/h (0 Bft)
10.11.2015 11:10 13,7 C 14,6 C 60 % 1027,4 hPa 0,0 mm 1,3 km/h (1 Bft) W-SW 247 6,1 C 2,8 km/h (1 Bft)
10.11.2015 11:15 14,1 C 15,4 C 59 % 1027,4 hPa 0,0 mm 3,1 km/h (1 Bft) NW 315 6,2 C 7,0 km/h (2 Bft)
10.11.2015 11:20 14,2 C 15,5 C 59 % 1027,4 hPa 0,0 mm 4,1 km/h (1 Bft) NW 315 6,3 C 5,2 km/h (1 Bft)
10.11.2015 11:25 14,6 C 15,8 C 59 % 1027,4 hPa 0,0 mm 6,0 km/h (2 Bft) W 270 6,7 C 12,7 km/h (3 Bft)
10.11.2015 11:30 14,7 C 15,7 C 59 % 1027,4 hPa 0,0 mm 6,7 km/h (2 Bft) W-SW 247 6,8 C 5,7 km/h (1 Bft)
10.11.2015 11:35 14,7 C 15,6 C 59 % 1027,4 hPa 0,0 mm 6,7 km/h (2 Bft) NW 315 6,8 C 6,0 km/h (2 Bft)
10.11.2015 11:40 14,7 C 15,6 C 58 % 1027,4 hPa 0,0 mm 5,7 km/h (1 Bft) W 270 6,5 C 2,6 km/h (1 Bft)
10.11.2015 11:45 14,8 C 15,7 C 59 % 1027,4 hPa 0,0 mm 4,9 km/h (1 Bft) W-SW 247 6,9 C 7,3 km/h (2 Bft)
10.11.2015 11:50 15,0 C 15,7 C 58 % 1027,2 hPa 0,0 mm 6,0 km/h (2 Bft) W-NW 292 6,8 C 8,3 km/h (2 Bft)
10.11.2015 11:55 15,2 C 15,7 C 58 % 1027,2 hPa 0,0 mm 7,8 km/h (2 Bft) W-SW 247 7,0 C 9,8 km/h (2 Bft)
10.11.2015 12:00 15,3 C 15,7 C 58 % 1027,2 hPa 0,0 mm 9,1 km/h (2 Bft) W 270 7,1 C 24,1 km/h (4 Bft)
10.11.2015 12:05 15,4 C 15,8 C 58 % 1027,2 hPa 0,0 mm 10,9 km/h (2 Bft) W 270 7,2 C 17,1 km/h (3 Bft)
10.11.2015 12:10 15,4 C 15,8 C 57 % 1027,1 hPa 0,0 mm 11,4 km/h (2 Bft) W-NW 292 6,9 C 16,8 km/h (3 Bft)
10.11.2015 12:15 15,6 C 15,9 C 57 % 1027,1 hPa 0,0 mm 12,2 km/h (2 Bft) W-SW 247 7,1 C 12,4 km/h (3 Bft)
10.11.2015 12:20 15,5 C 15,9 C 56 % 1027,1 hPa 0,0 mm 11,7 km/h (2 Bft) W-SW 247 6,8 C 25,1 km/h (4 Bft)
10.11.2015 12:25 15,7 C 15,9 C 55 % 1027,1 hPa 0,0 mm 11,1 km/h (2 Bft) W 270 6,7 C 15,0 km/h (3 Bft)
10.11.2015 12:30 15,7 C 16,1 C 55 % 1027,1 hPa 0,0 mm 11,4 km/h (2 Bft) W 270 6,7 C 19,9 km/h (4 Bft)
10.11.2015 12:35 15,6 C 16,1 C 52 % 1027,1 hPa 0,0 mm 10,9 km/h (2 Bft) W 270 5,8 C 13,7 km/h (3 Bft)
10.11.2015 12:40 15,7 C 16,1 C 51 % 1027,1 hPa 0,0 mm 11,1 km/h (2 Bft) N-NW 337 5,6 C 18,9 km/h (3 Bft)
10.11.2015 12:45 15,9 C 16,3 C 50 % 1027,1 hPa 0,0 mm 14,5 km/h (3 Bft) W 270 5,5 C 22,5 km/h (4 Bft)
10.11.2015 12:50 15,9 C 16,6 C 50 % 1026,9 hPa 0,0 mm 16,6 km/h (3 Bft) W-NW 292 5,5 C 27,2 km/h (4 Bft)
10.11.2015 12:55 15,8 C 16,5 C 50 % 1026,9 hPa 0,0 mm 12,9 km/h (3 Bft) NW 315 5,4 C 13,7 km/h (3 Bft)
10.11.2015 13:00 15,9 C 16,4 C 49 % 1026,9 hPa 0,0 mm 11,4 km/h (2 Bft) S-SO 157 5,2 C 15,0 km/h (3 Bft)
10.11.2015 13:05 15,8 C 16,4 C 49 % 1026,9 hPa 0,0 mm 9,6 km/h (2 Bft) W-NW 292 5,1 C 7,8 km/h (2 Bft)
10.11.2015 13:10 15,9 C 16,5 C 49 % 1026,5 hPa 0,0 mm 9,1 km/h (2 Bft) W 270 5,2 C 11,1 km/h (2 Bft)
10.11.2015 13:15 16,1 C 16,8 C 49 % 1026,5 hPa 0,0 mm 9,8 km/h (2 Bft) W-NW 292 5,4 C 14,0 km/h (3 Bft)
10.11.2015 13:20 16,4 C 18,1 C 48 % 1026,5 hPa 0,0 mm 11,1 km/h (2 Bft) W-NW 292 5,4 C 18,4 km/h (3 Bft)
10.11.2015 13:25 16,9 C 19,5 C 46 % 1026,5 hPa 0,0 mm 13,7 km/h (3 Bft) NW 315 5,2 C 18,4 km/h (3 Bft)
10.11.2015 13:30 17,1 C 19,9 C 46 % 1027,8 hPa 0,0 mm 14,5 km/h (3 Bft) W-SW 247 5,4 C 28,2 km/h (4 Bft)
10.11.2015 13:35 17,3 C 20,2 C 44 % 1027,8 hPa 0,0 mm 13,7 km/h (3 Bft) W-NW 292 4,9 C 18,4 km/h (3 Bft)
10.11.2015 13:40 17,5 C 20,4 C 45 % 1027,8 hPa 0,0 mm 12,7 km/h (3 Bft) W 270 5,4 C 15,5 km/h (3 Bft)
10.11.2015 13:45 17,8 C 20,7 C 45 % 1027,8 hPa 0,0 mm 9,8 km/h (2 Bft) W-NW 292 5,7 C 4,4 km/h (1 Bft)
10.11.2015 13:50 18,0 C 21,1 C 45 % 1028,1 hPa 0,0 mm 8,5 km/h (2 Bft) W 270 5,9 C 7,5 km/h (2 Bft)
10.11.2015 13:55 17,8 C 21,8 C 46 % 1028,1 hPa 0,0 mm 4,9 km/h (1 Bft) W-NW 292 6,0 C 3,4 km/h (1 Bft)
10.11.2015 14:00 17,7 C 22,1 C 46 % 1028,1 hPa 0,0 mm 4,9 km/h (1 Bft) W-NW 292 5,9 C 4,7 km/h (1 Bft)
10.11.2015 14:05 17,5 C 21,9 C 46 % 1028,1 hPa 0,0 mm 7,5 km/h (2 Bft) NW 315 5,8 C 7,5 km/h (2 Bft)
10.11.2015 14:10 17,4 C 21,9 C 46 % 1027,2 hPa 0,0 mm 7,8 km/h (2 Bft) W 270 5,7 C 12,2 km/h (2 Bft)
10.11.2015 14:15 17,3 C 21,8 C 47 % 1027,2 hPa 0,0 mm 6,7 km/h (2 Bft) W-NW 292 5,9 C 8,8 km/h (2 Bft)
10.11.2015 14:20 17,7 C 21,8 C 47 % 1027,2 hPa 0,0 mm 6,7 km/h (2 Bft) W-NW 292 6,2 C 7,3 km/h (2 Bft)
10.11.2015 14:25 17,9 C 22,3 C 47 % 1027,2 hPa 0,0 mm 3,6 km/h (1 Bft) NW 315 6,4 C 6,5 km/h (2 Bft)
10.11.2015 14:30 18,0 C 22,3 C 47 % 1026,9 hPa 0,0 mm 3,6 km/h (1 Bft) NW 315 6,5 C 6,7 km/h (2 Bft)
10.11.2015 14:34 18,2 C 21,8 C 47 % 1026,9 hPa 0,0 mm 6,0 km/h (2 Bft) N-NW 337 6,7 C 3,6 km/h (1 Bft)
10.11.2015 14:35 18,2 C 21,8 C 47 % 1026,9 hPa 0,0 mm 6,0 km/h (2 Bft) N-NW 337 6,7 C 3,6 km/h (1 Bft)
10.11.2015 14:40 18,2 C 21,8 C 47 % 1026,9 hPa 0,0 mm 5,7 km/h (1 Bft) N-NW 337 6,7 C 0,0 km/h (0 Bft)
10.11.2015 14:45 18,0 C 22,0 C 47 % 1026,9 hPa 0,0 mm 4,1 km/h (1 Bft) W 270 6,5 C 8,8 km/h (2 Bft)
10.11.2015 14:50 18,0 C 21,8 C 47 % 1026,5 hPa 0,0 mm 4,1 km/h (1 Bft) W-NW 292 6,5 C 4,4 km/h (1 Bft)
10.11.2015 14:55 17,8 C 21,5 C 47 % 1026,5 hPa 0,0 mm 5,2 km/h (1 Bft) W-NW 292 6,3 C 3,6 km/h (1 Bft)
10.11.2015 15:00 17,6 C 21,5 C 47 % 1026,5 hPa 0,0 mm 4,1 km/h (1 Bft) N-NW 337 6,2 C 2,8 km/h (1 Bft)
10.11.2015 15:05 17,3 C 21,6 C 47 % 1026,5 hPa 0,0 mm 1,3 km/h (1 Bft) W-SW 247 5,9 C 0,0 km/h (0 Bft)
10.11.2015 15:10 16,5 C 21,0 C 47 % 1026,1 hPa 0,0 mm 0,3 km/h (0 Bft) W-SW 247 5,2 C 0,0 km/h (0 Bft)
10.11.2015 15:15 16,0 C 19,3 C 48 % 1026,1 hPa 0,0 mm 0,0 km/h (0 Bft) W-SW 247 5,0 C 0,0 km/h (0 Bft)
10.11.2015 15:20 15,7 C 18,2 C 49 % 1026,1 hPa 0,0 mm 0,0 km/h (0 Bft) W 270 5,0 C 0,0 km/h (0 Bft)
10.11.2015 15:25 15,4 C 17,3 C 49 % 1026,1 hPa 0,0 mm 0,3 km/h (0 Bft) NW 315 4,7 C 4,4 km/h (1 Bft)
10.11.2015 15:30 15,3 C 16,6 C 49 % 1025,8 hPa 0,0 mm 0,3 km/h (0 Bft) NW 315 4,7 C 0,0 km/h (0 Bft)
10.11.2015 15:35 15,3 C 15,8 C 50 % 1025,8 hPa 0,0 mm 0,3 km/h (0 Bft) W-SW 247 4,9 C 0,0 km/h (0 Bft)
10.11.2015 15:40 15,1 C 15,3 C 51 % 1025,8 hPa 0,0 mm 0,0 km/h (0 Bft) W-SW 247 5,0 C 0,0 km/h (0 Bft)
10.11.2015 15:45 15,0 C 15,0 C 52 % 1025,8 hPa 0,0 mm 0,0 km/h (0 Bft) W-SW 247 5,2 C 0,0 km/h (0 Bft)
10.11.2015 15:50 14,7 C 14,7 C 52 % 1025,6 hPa 0,0 mm 0,0 km/h (0 Bft) W 270 5,0 C 0,0 km/h (0 Bft)
10.11.2015 15:55 14,6 C 14,5 C 53 % 1025,6 hPa 0,0 mm 0,0 km/h (0 Bft) W-SW 247 5,1 C 0,0 km/h (0 Bft)
10.11.2015 16:00 14,4 C 14,3 C 54 % 1025,6 hPa 0,0 mm 0,3 km/h (0 Bft) W-SW 247 5,2 C 0,0 km/h (0 Bft)
10.11.2015 16:05 14,1 C 14,1 C 55 % 1025,6 hPa 0,0 mm 0,3 km/h (0 Bft) W-SW 247 5,2 C 0,0 km/h (0 Bft)
10.11.2015 16:10 14,0 C 13,9 C 54 % 1025,8 hPa 0,0 mm 0,3 km/h (0 Bft) W-SW 247 4,8 C 0,0 km/h (0 Bft)
10.11.2015 16:15 13,8 C 13,7 C 55 % 1025,8 hPa 0,0 mm 0,0 km/h (0 Bft) W-SW 247 4,9 C 2,6 km/h (1 Bft)
10.11.2015 16:20 13,7 C 13,6 C 55 % 1025,8 hPa 0,0 mm 0,5 km/h (0 Bft) W-SW 247 4,8 C 0,0 km/h (0 Bft)
10.11.2015 16:25 13,6 C 13,5 C 56 % 1025,8 hPa 0,7 mm 1,3 km/h (1 Bft) SW 225 5,0 C 0,0 km/h (0 Bft)
10.11.2015 16:30 13,0 C 13,2 C 56 % 1025,6 hPa 0,0 mm 0,8 km/h (0 Bft) SW 225 4,4 C 0,0 km/h (0 Bft)
10.11.2015 16:35 13,1 C 13,1 C 57 % 1025,6 hPa 0,0 mm 1,6 km/h (1 Bft) S 180 4,8 C 5,4 km/h (1 Bft)
10.11.2015 16:40 13,2 C 13,1 C 56 % 1025,6 hPa 0,0 mm 2,8 km/h (1 Bft) S 180 4,6 C 3,6 km/h (1 Bft)
10.11.2015 16:45 13,0 C 12,9 C 56 % 1025,6 hPa 0,0 mm 3,6 km/h (1 Bft) S-SO 157 4,4 C 4,9 km/h (1 Bft)
10.11.2015 16:50 13,1 C 13,0 C 56 % 1025,4 hPa 0,0 mm 3,4 km/h (1 Bft) S-SO 157 4,5 C 4,4 km/h (1 Bft)
10.11.2015 16:55 13,0 C 12,9 C 55 % 1025,4 hPa 0,0 mm 3,4 km/h (1 Bft) S 180 4,2 C 2,8 km/h (1 Bft)
10.11.2015 17:00 12,8 C 12,8 C 56 % 1025,4 hPa 0,0 mm 3,1 km/h (1 Bft) S 180 4,2 C 3,4 km/h (1 Bft)
10.11.2015 17:05 11,9 C 12,3 C 58 % 1025,4 hPa 0,0 mm 1,6 km/h (1 Bft) S 180 3,9 C 3,9 km/h (1 Bft)
10.11.2015 17:10 11,3 C 12,0 C 59 % 1025,3 hPa 0,0 mm 2,3 km/h (1 Bft) S 180 3,6 C 6,2 km/h (2 Bft)
10.11.2015 17:15 11,0 C 11,8 C 62 % 1025,3 hPa 0,0 mm 3,4 km/h (1 Bft) S 180 4,0 C 2,6 km/h (1 Bft)
10.11.2015 17:20 11,2 C 11,5 C 62 % 1025,3 hPa 0,0 mm 2,3 km/h (1 Bft) S 180 4,2 C 0,0 km/h (0 Bft)
10.11.2015 17:25 10,7 C 11,1 C 63 % 1025,3 hPa 0,0 mm 0,3 km/h (0 Bft) S 180 3,9 C 4,4 km/h (1 Bft)
10.11.2015 17:30 10,3 C 10,8 C 63 % 1025,4 hPa 0,0 mm 0,3 km/h (0 Bft) S-SO 157 3,6 C 0,0 km/h (0 Bft)
10.11.2015 17:35 9,4 C 10,0 C 63 % 1025,4 hPa 0,0 mm 0,3 km/h (0 Bft) S-SO 157 2,7 C 0,0 km/h (0 Bft)
10.11.2015 17:40 9,5 C 9,5 C 64 % 1025,4 hPa 0,0 mm 0,0 km/h (0 Bft) S-SO 157 3,0 C 0,0 km/h (0 Bft)
10.11.2015 17:45 9,5 C 9,3 C 66 % 1025,4 hPa 0,0 mm 0,0 km/h (0 Bft) S-SO 157 3,5 C 0,0 km/h (0 Bft)
10.11.2015 17:50 9,1 C 8,9 C 66 % 1025,5 hPa 0,0 mm 0,0 km/h (0 Bft) S-SO 157 3,1 C 0,0 km/h (0 Bft)
10.11.2015 17:55 9,6 C 9,2 C 70 % 1025,5 hPa 0,0 mm 0,0 km/h (0 Bft) S-SO 157 4,4 C 0,0 km/h (0 Bft)
10.11.2015 18:00 9,4 C 9,0 C 70 % 1025,5 hPa 0,0 mm 0,0 km/h (0 Bft) S-SO 157 4,2 C 0,0 km/h (0 Bft)
10.11.2015 18:05 8,9 C 8,6 C 70 % 1025,5 hPa 0,0 mm 0,0 km/h (0 Bft) SO 135 3,7 C 0,0 km/h (0 Bft)
10.11.2015 18:10 9,0 C 8,6 C 71 % 1025,6 hPa 0,0 mm 0,0 km/h (0 Bft) W-SW 247 4,0 C 0,0 km/h (0 Bft)
10.11.2015 18:15 9,2 C 8,8 C 70 % 1025,6 hPa 0,0 mm 0,0 km/h (0 Bft) S-SW 202 4,0 C 0,0 km/h (0 Bft)
10.11.2015 18:20 9,0 C 8,6 C 72 % 1025,6 hPa 0,0 mm 0,0 km/h (0 Bft) W 270 4,2 C 0,0 km/h (0 Bft)
10.11.2015 18:25 8,4 C 8,1 C 72 % 1025,6 hPa 0,0 mm 0,0 km/h (0 Bft) SW 225 3,7 C 0,0 km/h (0 Bft)
10.11.2015 18:30 8,4 C 8,1 C 73 % 1025,8 hPa 0,0 mm 0,5 km/h (0 Bft) S-SW 202 3,8 C 7,5 km/h (2 Bft)
10.11.2015 18:35 8,7 C 8,3 C 75 % 1025,8 hPa 0,0 mm 0,5 km/h (0 Bft) S-SO 157 4,5 C 0,0 km/h (0 Bft)
10.11.2015 18:40 8,4 C 8,2 C 71 % 1025,8 hPa 0,0 mm 0,5 km/h (0 Bft) S-SO 157 3,5 C 0,0 km/h (0 Bft)
10.11.2015 18:45 7,9 C 7,8 C 74 % 1025,8 hPa 0,0 mm 0,3 km/h (0 Bft) O 90 3,6 C 0,0 km/h (0 Bft)
10.11.2015 18:50 8,0 C 7,8 C 75 % 1025,8 hPa 0,0 mm 0,0 km/h (0 Bft) SO 135 3,8 C 0,0 km/h (0 Bft)
10.11.2015 18:55 8,7 C 8,2 C 77 % 1025,8 hPa 0,0 mm 0,0 km/h (0 Bft) SO 135 4,9 C 0,0 km/h (0 Bft)
10.11.2015 19:00 8,8 C 8,4 C 73 % 1025,8 hPa 0,0 mm 0,0 km/h (0 Bft) SO 135 4,2 C 0,0 km/h (0 Bft)
10.11.2015 19:05 8,0 C 7,8 C 75 % 1025,8 hPa 0,0 mm 0,0 km/h (0 Bft) O 90 3,8 C 0,0 km/h (0 Bft)
10.11.2015 19:10 8,1 C 7,8 C 76 % 1025,8 hPa 0,0 mm 0,0 km/h (0 Bft) SO 135 4,1 C 0,0 km/h (0 Bft)
10.11.2015 19:15 8,0 C 7,8 C 73 % 1025,8 hPa 0,0 mm 0,3 km/h (0 Bft) O-SO 112 3,5 C 0,0 km/h (0 Bft)
10.11.2015 19:20 8,0 C 7,9 C 73 % 1025,8 hPa 0,0 mm 0,3 km/h (0 Bft) S-SO 157 3,5 C 0,0 km/h (0 Bft)
10.11.2015 19:25 8,0 C 7,7 C 75 % 1025,8 hPa 0,0 mm 0,0 km/h (0 Bft) O-NO 67 3,8 C 0,0 km/h (0 Bft)
10.11.2015 19:30 7,6 C 7,4 C 76 % 1025,9 hPa 0,0 mm 0,0 km/h (0 Bft) O-SO 112 3,6 C 0,0 km/h (0 Bft)
10.11.2015 19:35 7,7 C 7,3 C 76 % 1025,9 hPa 0,0 mm 0,0 km/h (0 Bft) SO 135 3,7 C 0,0 km/h (0 Bft)
10.11.2015 19:40 7,7 C 7,3 C 76 % 1025,9 hPa 0,0 mm 0,0 km/h (0 Bft) O-SO 112 3,7 C 0,0 km/h (0 Bft)
10.11.2015 19:45 7,3 C 6,9 C 75 % 1025,9 hPa 0,0 mm 0,0 km/h (0 Bft) O 90 3,2 C 0,0 km/h (0 Bft)
10.11.2015 19:50 6,9 C 6,6 C 75 % 1026,0 hPa 0,0 mm 0,0 km/h (0 Bft) O-SO 112 2,8 C 0,0 km/h (0 Bft)
10.11.2015 19:55 7,3 C 6,9 C 74 % 1026,0 hPa 0,0 mm 0,3 km/h (0 Bft) SO 135 3,0 C 0,0 km/h (0 Bft)
10.11.2015 20:00 7,5 C 7,0 C 76 % 1026,0 hPa 0,0 mm 0,3 km/h (0 Bft) S-SO 157 3,5 C 0,0 km/h (0 Bft)
10.11.2015 20:05 6,4 C 6,2 C 75 % 1026,0 hPa 0,0 mm 0,0 km/h (0 Bft) O-SO 112 2,3 C 0,0 km/h (0 Bft)
10.11.2015 20:10 6,4 C 6,1 C 76 % 1025,9 hPa 0,0 mm 0,0 km/h (0 Bft) O-SO 112 2,5 C 0,0 km/h (0 Bft)
10.11.2015 20:15 6,7 C 6,4 C 74 % 1025,9 hPa 0,0 mm 0,0 km/h (0 Bft) SO 135 2,4 C 0,0 km/h (0 Bft)
10.11.2015 20:20 6,7 C 6,3 C 74 % 1025,9 hPa 0,0 mm 0,0 km/h (0 Bft) SO 135 2,4 C 0,0 km/h (0 Bft)
10.11.2015 20:25 6,5 C 6,1 C 74 % 1025,9 hPa 0,0 mm 0,0 km/h (0 Bft) SO 135 2,2 C 0,0 km/h (0 Bft)
10.11.2015 20:30 6,9 C 6,5 C 75 % 1026,2 hPa 0,0 mm 0,5 km/h (0 Bft) S-SO 157 2,8 C 0,0 km/h (0 Bft)
10.11.2015 20:34 7,5 C 6,9 C 77 % 1026,2 hPa 0,0 mm 0,5 km/h (0 Bft) O 90 3,7 C 0,0 km/h (0 Bft)
10.11.2015 20:36 7,5 C 6,9 C 77 % 1026,2 hPa 0,0 mm 0,5 km/h (0 Bft) O 90 3,7 C 0,0 km/h (0 Bft)
10.11.2015 20:40 6,5 C 6,3 C 76 % 1026,2 hPa 0,0 mm 0,3 km/h (0 Bft) O-NO 67 2,6 C 0,0 km/h (0 Bft)
10.11.2015 20:45 7,0 C 6,6 C 77 % 1026,2 hPa 0,0 mm 0,5 km/h (0 Bft) S-SO 157 3,2 C 3,1 km/h (1 Bft)
10.11.2015 20:50 7,6 C 7,2 C 73 % 1026,0 hPa 0,0 mm 1,0 km/h (0 Bft) S 180 3,1 C 3,6 km/h (1 Bft)
10.11.2015 20:55 7,6 C 7,3 C 72 % 1026,0 hPa 0,0 mm 0,8 km/h (0 Bft) S-SO 157 2,9 C 0,0 km/h (0 Bft)
10.11.2015 21:00 7,1 C 6,9 C 71 % 1026,0 hPa 0,0 mm 0,3 km/h (0 Bft) O 90 2,2 C 0,0 km/h (0 Bft)
10.11.2015 21:05 6,6 C 6,5 C 73 % 1026,0 hPa 0,0 mm 0,0 km/h (0 Bft) O-SO 112 2,1 C 0,0 km/h (0 Bft)
10.11.2015 21:10 6,8 C 6,5 C 74 % 1026,2 hPa 0,0 mm 0,0 km/h (0 Bft) SO 135 2,5 C 0,0 km/h (0 Bft)
10.11.2015 21:15 6,3 C 6,1 C 73 % 1026,2 hPa 0,0 mm 0,0 km/h (0 Bft) O-NO 67 1,8 C 0,0 km/h (0 Bft)
10.11.2015 21:20 6,1 C 5,9 C 74 % 1026,2 hPa 0,0 mm 0,0 km/h (0 Bft) O-NO 67 1,8 C 0,0 km/h (0 Bft)
10.11.2015 21:25 6,4 C 6,0 C 75 % 1026,2 hPa 0,0 mm 0,0 km/h (0 Bft) SO 135 2,3 C 0,0 km/h (0 Bft)
10.11.2015 21:30 6,5 C 6,0 C 75 % 1026,4 hPa 0,0 mm 0,0 km/h (0 Bft) S-SO 157 2,4 C 0,0 km/h (0 Bft)
10.11.2015 21:35 6,5 C 6,1 C 74 % 1026,4 hPa 0,0 mm 0,3 km/h (0 Bft) S-SO 157 2,2 C 2,8 km/h (1 Bft)
10.11.2015 21:40 6,9 C 6,7 C 72 % 1026,4 hPa 0,0 mm 0,8 km/h (0 Bft) S-SO 157 2,2 C 3,4 km/h (1 Bft)
10.11.2015 21:45 6,9 C 6,8 C 71 % 1026,4 hPa 0,0 mm 1,8 km/h (1 Bft) O-NO 67 2,0 C 0,0 km/h (0 Bft)
10.11.2015 21:50 6,3 C 6,5 C 71 % 1026,5 hPa 0,0 mm 1,0 km/h (0 Bft) O-NO 67 1,4 C 0,0 km/h (0 Bft)
10.11.2015 21:55 6,2 C 6,2 C 72 % 1026,5 hPa 0,0 mm 0,0 km/h (0 Bft) O-NO 67 1,5 C 0,0 km/h (0 Bft)
10.11.2015 22:00 6,0 C 6,0 C 72 % 1026,5 hPa 0,0 mm 0,0 km/h (0 Bft) O-NO 67 1,3 C 0,0 km/h (0 Bft)
10.11.2015 22:05 5,9 C 5,9 C 74 % 1026,5 hPa 0,0 mm 0,0 km/h (0 Bft) SO 135 1,6 C 0,0 km/h (0 Bft)
10.11.2015 22:10 5,8 C 5,8 C 74 % 1026,1 hPa 0,0 mm 0,0 km/h (0 Bft) O-SO 112 1,5 C 0,0 km/h (0 Bft)
10.11.2015 22:15 5,5 C 5,5 C 74 % 1026,1 hPa 0,0 mm 0,0 km/h (0 Bft) O-SO 112 1,2 C 0,0 km/h (0 Bft)
10.11.2015 22:20 5,3 C 5,3 C 74 % 1026,1 hPa 0,0 mm 0,0 km/h (0 Bft) O-SO 112 1,0 C 0,0 km/h (0 Bft)
10.11.2015 22:25 4,9 C 4,9 C 74 % 1026,1 hPa 0,0 mm 0,0 km/h (0 Bft) SO 135 0,7 C 0,0 km/h (0 Bft)
10.11.2015 22:30 4,8 C 4,8 C 75 % 1026,2 hPa 0,0 mm 0,0 km/h (0 Bft) O-SO 112 0,8 C 0,0 km/h (0 Bft)
10.11.2015 22:35 5,2 C 4,9 C 76 % 1026,2 hPa 0,0 mm 0,0 km/h (0 Bft) O-SO 112 1,3 C 0,0 km/h (0 Bft)
10.11.2015 22:40 5,1 C 4,8 C 75 % 1026,2 hPa 0,0 mm 0,0 km/h (0 Bft) SO 135 1,0 C 0,0 km/h (0 Bft)
10.11.2015 22:45 5,0 C 4,7 C 75 % 1026,2 hPa 0,0 mm 0,0 km/h (0 Bft) SO 135 0,9 C 0,0 km/h (0 Bft)
10.11.2015 22:50 4,7 C 4,5 C 75 % 1026,1 hPa 0,0 mm 0,0 km/h (0 Bft) S 180 0,7 C 0,0 km/h (0 Bft)
10.11.2015 22:55 5,1 C 5,1 C 73 % 1026,1 hPa 0,0 mm 0,0 km/h (0 Bft) S 180 0,7 C 0,0 km/h (0 Bft)
10.11.2015 23:00 5,4 C 5,3 C 73 % 1026,1 hPa 0,0 mm 0,0 km/h (0 Bft) O-SO 112 1,0 C 0,0 km/h (0 Bft)
10.11.2015 23:05 5,1 C 5,1 C 73 % 1026,1 hPa 0,0 mm 0,0 km/h (0 Bft) SO 135 0,7 C 0,0 km/h (0 Bft)
10.11.2015 23:10 5,5 C 5,3 C 73 % 1026,0 hPa 0,0 mm 0,0 km/h (0 Bft) SO 135 1,1 C 0,0 km/h (0 Bft)
10.11.2015 23:15 5,9 C 5,9 C 71 % 1026,0 hPa 0,0 mm 0,3 km/h (0 Bft) SO 135 1,1 C 0,0 km/h (0 Bft)
10.11.2015 23:20 6,4 C 6,2 C 69 % 1026,0 hPa 0,0 mm 0,3 km/h (0 Bft) S-SO 157 1,1 C 0,0 km/h (0 Bft)
10.11.2015 23:25 5,3 C 5,3 C 68 % 1026,0 hPa 0,0 mm 0,0 km/h (0 Bft) O-SO 112 -0,1 C 0,0 km/h (0 Bft)
10.11.2015 23:30 5,0 C 5,0 C 69 % 1026,0 hPa 0,0 mm 0,0 km/h (0 Bft) O-SO 112 -0,2 C 0,0 km/h (0 Bft)
10.11.2015 23:35 4,9 C 4,7 C 69 % 1026,0 hPa 0,0 mm 0,0 km/h (0 Bft) O-SO 112 -0,3 C 0,0 km/h (0 Bft)
10.11.2015 23:40 4,7 C 4,5 C 70 % 1026,0 hPa 0,0 mm 0,0 km/h (0 Bft) O-SO 112 -0,3 C 0,0 km/h (0 Bft)
10.11.2015 23:45 4,5 C 4,2 C 70 % 1026,0 hPa 0,0 mm 0,0 km/h (0 Bft) O-SO 112 -0,5 C 0,0 km/h (0 Bft)
10.11.2015 23:50 4,4 C 4,0 C 71 % 1026,0 hPa 0,0 mm 0,0 km/h (0 Bft) O-SO 112 -0,4 C 0,0 km/h (0 Bft)
10.11.2015 23:55 4,1 C 3,8 C 71 % 1026,0 hPa 0,0 mm 0,0 km/h (0 Bft) O-SO 112 -0,7 C 0,0 km/h (0 Bft)
_ Min-Zeit 23:55 23:55 13:35 17:25 - 23:55 - - 23:55 23:55
Minimum _ 4,1 C 3,8 C 44 % 1025,3 hPa - 0,0 km/h (0 Bft) - - -0,7 C 0,0 km/h (0 Bft)
_ Max-Zeit 14:40 14:30 01:25 14:05 16:25 12:50 - - 00:50 13:30
Maximum _ 18,2 C 22,3 C 83 % 1028,1 hPa 0,7 mm 16,6 km/h
W-NW (3 Bft)
- - 8,5 C 28,2 km/h
W-SW (4 Bft)
Durchschnitt _ 11,3 C 11,7 C 67 % 1026,6 hPa #0,7 mm 3,9 km/h (1 Bft) W-SW - 5,2 C 5,3 km/h (1 Bft)